Regional Weather Roundup
Issued by NWS State College, PA

Home | Current Version | Previous Version | Text Only | Print | Product List | Glossary Off
Versions: 1 2 3 4 5 6 7 8 9 10 11 12 13 14 15 16 17 18 19 20 21 22 23 24 25 26 27 28 29 30 31 32 33 34 35 36 37 38 39 40 41 42 43 44 45 46 47 48 49 50

000
ASUS41 KCTP 020310
RWRCTP

REGIONAL WEATHER ROUNDUP
NATIONAL WEATHER SERVICE STATE COLLEGE PA
1100 PM EDT SAT AUG 01 2015

Note: "fair" indicates few or no clouds below 12,000 feet with no
significant weather and/or obstructions to visibility.

* = STATION THAT DOES NOT REPORT PRECIPITATION /E.G. RAIN...SNOW...ETC/
    THUNDER OR FOG.

PAZ002>004-007>009-013>016-020>023-029>032-020400-
WESTERN PENNSYLVANIA

CITY           SKY/WX    TMP DP  RH WIND       PRES   REMARKS
ERIE           CLEAR     68  57  68 S6        29.89S
MEADVILLE      CLEAR     65  51  60 S5        29.94S
FRANKLIN*      CLOUDY    63  48  59 SW3       29.96S
NEW CASTLE     FAIR      60  57  89 CALM      29.95S
BEAVER COUNTY  NOT AVBL
BUTLER*        CLEAR     63  57  82 CALM      29.97S
PITTSBURGH INT CLEAR     69  56  62 CALM      29.96R
PITTSBURGH     CLEAR     71  50  47 W7        29.95S
INDIANA*       CLOUDY    64  61  88 CALM      29.99S
LATROBE        NOT AVBL
WASHINGTON CO* NOT AVBL
$$

PAZ004>006-010>012-017>019-024>028-033>037-041-042-045-046-049>053-020400-
CENTRAL PENNSYLVANIA

CITY           SKY/WX    TMP DP  RH WIND       PRES   REMARKS
BRADFORD       PTCLDY    55  52  89 CALM      29.96S
DUBOIS         CLEAR     63  59  87 SW3       29.96R
CLEARFIELD     CLEAR     63  57  81 CALM      29.96R
JOHNSTOWN      PTCLDY    66  54  65 SW5       30.00R
ALTOONA        MOCLDY    66  60  81 S6        29.97S
STATE COLLEGE  PTCLDY    64  58  82 CALM      29.95R
WILLIAMSPORT   CLEAR     65  58  78 CALM      29.89R
SELINSGROVE    CLEAR     63  61  93 CALM      29.91S
FT INDIANTOWN  CLOUDY    73  59  60 SW2       29.90
CAPITAL CITY   PTCLDY    71  59  65 W5        29.90R
HARRISBURG     PTCLDY    73  60  63 NW3       29.89S
YORK           PTCLDY    66  60  81 CALM      29.91S
$$

PAZ038>040-043-044-047-048-054-055-060>062-067>071-020400-
EASTERN PENNSYLVANIA

CITY           SKY/WX    TMP DP  RH WIND       PRES   REMARKS
SCRANTON       CLEAR     63  58  83 SE5       29.90S
MOUNT POCONO   PTCLDY    61  55  81 NW6       29.94S
ALLENTOWN      PTCLDY    73  61  65 CALM      29.88R
QUAKERTOWN*    PTCLDY    68  59  73 CALM      29.90R
READING        PTCLDY    71  61  70 S3        29.88S
LANCASTER      CLEAR     71  57  61 W6        29.90R
COATESVILLE    CLEAR     70  59  68 NW6       29.91S
POTTSTOWN      PTCLDY    71  60  68 W5        29.90R
BLUE BELL      NOT AVBL
DOYLESTOWN     PTCLDY    69  58  67 CALM      29.87S
WILLOW GROVE   NOT AVBL
NORTH PHILA    CLEAR     73  56  54 N5        29.88S
PHILADELPHIA   PTCLDY    83  57  41 W7        29.87S
$$



USA.gov is the U.S. government's official web portal to all federal, state and local government web resources and services.